Time,TemperatureF,DewpointF,PressureIn,WindDirection,WindDirectionDegrees,WindSpeedMPH,WindSpeedGustMPH,Humidity,HourlyPrecipIn,Conditions,Clouds,dailyrainin,SoftwareType,DateUTC
2013-05-20 00:04:00,73.6,46.4,28.95,East,90,6.0,8.0,38,0.00,,,0.00,meteohub,2013-05-20 05:04:00,
2013-05-20 00:09:00,73.6,46.4,28.95,ESE,112,4.0,8.0,38,0.00,,,0.00,meteohub,2013-05-20 05:09:00,
2013-05-20 00:14:00,73.6,46.4,28.95,SSE,158,3.0,8.0,38,0.00,,,0.00,meteohub,2013-05-20 05:14:00,
2013-05-20 00:19:00,73.6,46.4,28.95,SE,135,6.0,10.0,38,0.00,,,0.00,meteohub,2013-05-20 05:19:00,
2013-05-20 00:24:00,73.6,46.4,28.95,ESE,112,4.0,10.0,38,0.00,,,0.00,meteohub,2013-05-20 05:24:00,
2013-05-20 00:29:00,73.6,47.1,28.95,SE,135,6.0,10.0,39,0.00,,,0.00,meteohub,2013-05-20 05:29:00,
2013-05-20 00:34:00,73.8,47.3,28.95,SSE,158,5.0,10.0,39,0.00,,,0.00,meteohub,2013-05-20 05:34:00,
2013-05-20 00:39:00,73.9,47.5,28.95,SSW,202,5.0,10.0,39,0.00,,,0.00,meteohub,2013-05-20 05:39:00,
2013-05-20 00:44:00,74.1,47.7,28.95,SSE,158,0.0,9.0,39,0.00,,,0.00,meteohub,2013-05-20 05:44:00,
2013-05-20 00:49:00,74.1,47.7,28.95,ESE,112,4.0,9.0,39,0.00,,,0.00,meteohub,2013-05-20 05:49:00,
2013-05-20 00:54:00,74.1,47.7,28.95,ESE,112,0.0,9.0,39,0.00,,,0.00,meteohub,2013-05-20 05:54:00,
2013-05-20 00:59:00,73.9,47.5,28.95,SE,135,6.0,9.0,39,0.00,,,0.00,meteohub,2013-05-20 05:59:00,
2013-05-20 01:04:00,73.8,48.6,28.92,SSE,158,3.0,9.0,41,0.00,,,0.00,meteohub,2013-05-20 06:04:00,
2013-05-20 01:09:00,73.4,48.2,28.92,ESE,112,0.0,10.0,41,0.00,,,0.00,meteohub,2013-05-20 06:09:00,
2013-05-20 01:14:00,73.2,48.7,28.92,SE,135,3.0,10.0,42,0.00,,,0.00,meteohub,2013-05-20 06:14:00,
2013-05-20 01:19:00,73.2,48.7,28.92,SSE,158,0.0,10.0,42,0.00,,,0.00,meteohub,2013-05-20 06:19:00,
2013-05-20 01:24:00,73.2,49.5,28.92,ESE,112,5.0,9.0,43,0.00,,,0.00,meteohub,2013-05-20 06:24:00,
2013-05-20 01:29:00,73.2,50.0,28.92,South,180,6.0,9.0,44,0.00,,,0.00,meteohub,2013-05-20 06:29:00,
2013-05-20 01:34:00,73.4,51.4,28.95,SE,135,6.0,8.0,46,0.00,,,0.00,meteohub,2013-05-20 06:34:00,
2013-05-20 01:39:00,73.6,51.6,28.95,SSW,202,5.0,7.0,46,0.00,,,0.00,meteohub,2013-05-20 06:39:00,
2013-05-20 01:44:00,73.8,51.6,28.95,SSW,202,0.0,7.0,46,0.00,,,0.00,meteohub,2013-05-20 06:44:00,
2013-05-20 01:49:00,73.8,52.3,28.95,WSW,248,7.0,7.0,47,0.00,,,0.00,meteohub,2013-05-20 06:49:00,
2013-05-20 01:54:00,73.9,52.5,28.95,SSE,158,6.0,8.0,47,0.00,,,0.00,meteohub,2013-05-20 06:54:00,
2013-05-20 01:59:00,73.8,51.6,28.95,SE,135,0.0,11.0,46,0.00,,,0.00,meteohub,2013-05-20 06:59:00,
2013-05-20 02:04:00,73.8,52.3,28.95,SSE,158,6.0,11.0,47,0.00,,,0.00,meteohub,2013-05-20 07:04:00,
2013-05-20 02:09:00,73.6,52.7,28.95,SSE,158,0.0,11.0,48,0.00,,,0.00,meteohub,2013-05-20 07:09:00,
2013-05-20 02:14:00,73.6,53.2,28.95,SSW,202,8.0,11.0,49,0.00,,,0.00,meteohub,2013-05-20 07:14:00,
2013-05-20 02:19:00,73.4,53.1,28.92,SSE,158,5.0,10.0,49,0.00,,,0.00,meteohub,2013-05-20 07:19:00,
2013-05-20 02:24:00,73.2,53.4,28.92,SSE,158,3.0,11.0,50,0.00,,,0.00,meteohub,2013-05-20 07:24:00,
2013-05-20 02:29:00,73.0,53.2,28.92,SE,135,1.0,11.0,50,0.00,,,0.00,meteohub,2013-05-20 07:29:00,
2013-05-20 02:34:00,72.9,53.6,28.95,South,180,4.0,11.0,51,0.00,,,0.00,meteohub,2013-05-20 07:34:00,
2013-05-20 02:39:00,72.7,54.1,28.95,SSE,158,6.0,9.0,52,0.00,,,0.00,meteohub,2013-05-20 07:39:00,
2013-05-20 02:44:00,72.5,54.3,28.95,SSE,158,5.0,9.0,53,0.00,,,0.00,meteohub,2013-05-20 07:44:00,
2013-05-20 02:49:00,72.3,54.7,28.92,SE,135,6.0,11.0,54,0.00,,,0.00,meteohub,2013-05-20 07:49:00,
2013-05-20 02:54:00,72.1,55.0,28.92,ESE,112,4.0,11.0,55,0.00,,,0.00,meteohub,2013-05-20 07:54:00,
2013-05-20 02:59:00,72.1,55.6,28.92,SE,135,8.0,11.0,56,0.00,,,0.00,meteohub,2013-05-20 07:59:00,
2013-05-20 03:04:00,72.0,55.4,28.92,SSE,158,5.0,11.0,56,0.00,,,0.00,meteohub,2013-05-20 08:04:00,
2013-05-20 03:10:00,71.8,55.8,28.92,SSW,202,3.0,8.0,57,0.00,,,0.00,meteohub,2013-05-20 08:10:00,
2013-05-20 03:15:00,71.8,56.3,28.92,SE,135,0.0,10.0,58,0.00,,,0.00,meteohub,2013-05-20 08:15:00,
2013-05-20 03:20:00,71.8,56.7,28.92,SE,135,5.0,10.0,59,0.00,,,0.00,meteohub,2013-05-20 08:20:00,
2013-05-20 03:25:00,71.8,57.2,28.92,SE,135,5.0,10.0,60,0.00,,,0.00,meteohub,2013-05-20 08:25:00,
2013-05-20 03:30:00,71.8,57.2,28.92,SSE,158,2.0,9.0,60,0.00,,,0.00,meteohub,2013-05-20 08:30:00,
2013-05-20 03:35:00,71.8,57.6,28.89,SE,135,4.0,10.0,61,0.00,,,0.00,meteohub,2013-05-20 08:35:00,
2013-05-20 03:40:00,71.6,57.0,28.89,ESE,112,1.0,10.0,60,0.00,,,0.00,meteohub,2013-05-20 08:40:00,
2013-05-20 03:45:00,71.4,56.8,28.89,ESE,112,3.0,10.0,60,0.00,,,0.00,meteohub,2013-05-20 08:45:00,
2013-05-20 03:50:00,71.1,57.0,28.89,ESE,112,0.0,9.0,61,0.00,,,0.00,meteohub,2013-05-20 08:50:00,
2013-05-20 03:55:00,70.9,57.2,28.89,SE,135,3.0,6.0,62,0.00,,,0.00,meteohub,2013-05-20 08:55:00,
2013-05-20 04:00:00,70.9,57.7,28.89,SSE,158,0.0,8.0,63,0.00,,,0.00,meteohub,2013-05-20 09:00:00,
2013-05-20 04:05:00,70.7,57.6,28.92,SSE,158,0.0,8.0,63,0.00,,,0.00,meteohub,2013-05-20 09:05:00,
2013-05-20 04:10:00,70.7,58.3,28.92,SSE,158,0.0,6.0,65,0.00,,,0.00,meteohub,2013-05-20 09:10:00,
2013-05-20 04:15:00,70.7,58.3,28.92,SE,135,0.0,6.0,65,0.00,,,0.00,meteohub,2013-05-20 09:15:00,
2013-05-20 04:20:00,70.7,58.3,28.92,SSE,158,2.0,7.0,65,0.00,,,0.00,meteohub,2013-05-20 09:20:00,
2013-05-20 04:25:00,70.7,58.8,28.92,SSE,158,0.0,7.0,66,0.00,,,0.00,meteohub,2013-05-20 09:25:00,
2013-05-20 04:30:00,70.5,58.3,28.92,SSW,202,4.0,7.0,65,0.00,,,0.00,meteohub,2013-05-20 09:30:00,
2013-05-20 04:35:00,70.7,58.8,28.92,South,180,0.0,7.0,66,0.00,,,0.00,meteohub,2013-05-20 09:35:00,
2013-05-20 04:40:00,70.7,58.8,28.92,SSW,202,3.0,7.0,66,0.00,,,0.00,meteohub,2013-05-20 09:40:00,
2013-05-20 04:45:00,70.5,58.6,28.92,SE,135,0.0,7.0,66,0.00,,,0.00,meteohub,2013-05-20 09:45:00,
2013-05-20 04:50:00,70.7,59.2,28.92,SSE,158,4.0,7.0,67,0.00,,,0.00,meteohub,2013-05-20 09:50:00,
2013-05-20 04:55:00,70.5,58.6,28.92,SSE,158,4.0,7.0,66,0.00,,,0.00,meteohub,2013-05-20 09:55:00,
2013-05-20 05:00:00,70.5,59.5,28.92,SSE,158,2.0,6.0,68,0.00,,,0.00,meteohub,2013-05-20 10:00:00,
2013-05-20 05:05:00,70.3,59.4,28.92,ESE,112,6.0,6.0,68,0.00,,,0.00,meteohub,2013-05-20 10:05:00,
2013-05-20 05:10:00,70.3,59.4,28.92,SSE,158,6.0,8.0,68,0.00,,,0.00,meteohub,2013-05-20 10:10:00,
2013-05-20 05:15:00,70.3,59.7,28.92,SSE,158,0.0,8.0,69,0.00,,,0.00,meteohub,2013-05-20 10:15:00,
2013-05-20 05:20:00,70.2,59.5,28.92,SSE,158,0.0,8.0,69,0.00,,,0.00,meteohub,2013-05-20 10:20:00,
2013-05-20 05:25:00,70.2,59.5,28.92,South,180,6.0,7.0,69,0.00,,,0.00,meteohub,2013-05-20 10:25:00,
2013-05-20 05:30:00,70.2,59.5,28.92,South,180,5.0,7.0,69,0.00,,,0.00,meteohub,2013-05-20 10:30:00,
2013-05-20 05:35:00,70.2,59.5,28.95,South,180,4.0,8.0,69,0.00,,,0.00,meteohub,2013-05-20 10:35:00,
2013-05-20 05:40:00,70.2,59.2,28.95,SSE,158,6.0,8.0,68,0.00,,,0.00,meteohub,2013-05-20 10:40:00,
2013-05-20 05:45:00,70.3,59.4,28.95,SSW,202,2.0,8.0,68,0.00,,,0.00,meteohub,2013-05-20 10:45:00,
2013-05-20 05:50:00,70.3,58.8,28.95,SSW,202,2.0,6.0,67,0.00,,,0.00,meteohub,2013-05-20 10:50:00,
2013-05-20 05:55:00,70.5,58.6,28.95,SSW,202,2.0,6.0,66,0.00,,,0.00,meteohub,2013-05-20 10:55:00,
2013-05-20 06:00:00,70.5,58.3,28.95,SSE,158,4.0,6.0,65,0.00,,,0.00,meteohub,2013-05-20 11:00:00,
2013-05-20 06:05:00,70.5,57.7,28.95,SSW,202,4.0,9.0,64,0.00,,,0.00,meteohub,2013-05-20 11:05:00,
2013-05-20 06:10:00,70.7,57.6,28.95,South,180,8.0,9.0,63,0.00,,,0.00,meteohub,2013-05-20 11:10:00,
2013-05-20 06:15:00,70.9,57.2,28.95,ESE,112,3.0,10.0,62,0.00,,,0.00,meteohub,2013-05-20 11:15:00,
2013-05-20 06:20:00,71.2,56.7,28.95,SSE,158,3.0,10.0,60,0.00,,,0.00,meteohub,2013-05-20 11:20:00,
2013-05-20 06:25:00,71.4,55.9,28.95,SW,225,3.0,10.0,58,0.00,,,0.00,meteohub,2013-05-20 11:25:00,
2013-05-20 06:30:00,71.6,55.6,28.95,SSW,202,4.0,10.0,57,0.00,,,0.00,meteohub,2013-05-20 11:30:00,
2013-05-20 06:35:00,71.8,55.2,28.95,ESE,112,6.0,8.0,56,0.00,,,0.00,meteohub,2013-05-20 11:35:00,
2013-05-20 06:40:00,71.6,55.0,28.95,SSW,202,9.0,9.0,56,0.00,,,0.00,meteohub,2013-05-20 11:40:00,
2013-05-20 06:45:00,71.6,55.0,28.95,SSE,158,2.0,9.0,56,0.00,,,0.00,meteohub,2013-05-20 11:45:00,
2013-05-20 06:50:00,71.8,55.2,28.95,WSW,248,3.0,10.0,56,0.00,,,0.00,meteohub,2013-05-20 11:50:00,
2013-05-20 06:55:00,72.1,55.0,28.95,South,180,5.0,11.0,55,0.00,,,0.00,meteohub,2013-05-20 11:55:00,
2013-05-20 07:00:00,72.7,54.5,28.95,SSE,158,6.0,11.0,53,0.00,,,0.00,meteohub,2013-05-20 12:00:00,
2013-05-20 07:05:00,73.6,54.3,28.98,SSE,158,0.0,11.0,51,0.00,,,0.00,meteohub,2013-05-20 12:05:00,
2013-05-20 07:10:00,73.9,53.6,28.98,SSW,202,4.0,11.0,49,0.00,,,0.00,meteohub,2013-05-20 12:10:00,
2013-05-20 07:15:00,74.3,53.4,28.98,SE,135,6.0,11.0,48,0.00,,,0.00,meteohub,2013-05-20 12:15:00,
2013-05-20 07:20:00,74.3,52.7,28.98,SSW,202,5.0,11.0,47,0.00,,,0.00,meteohub,2013-05-20 12:20:00,
2013-05-20 07:25:00,74.3,52.7,28.98,SSW,202,8.0,15.0,47,0.00,,,0.00,meteohub,2013-05-20 12:25:00,
2013-05-20 07:30:00,74.3,52.7,28.98,SSW,202,7.0,15.0,47,0.00,,,0.00,meteohub,2013-05-20 12:30:00,
2013-05-20 07:35:00,74.8,52.7,28.98,SW,225,9.0,15.0,46,0.00,,,0.00,meteohub,2013-05-20 12:35:00,
2013-05-20 07:40:00,75.2,52.3,28.98,SSE,158,5.0,11.0,45,0.00,,,0.00,meteohub,2013-05-20 12:40:00,
2013-05-20 07:45:00,75.6,52.2,28.98,SSE,158,6.0,11.0,44,0.00,,,0.00,meteohub,2013-05-20 12:45:00,
2013-05-20 07:50:00,76.6,52.5,28.98,South,180,2.0,10.0,43,0.00,,,0.00,meteohub,2013-05-20 12:50:00,
2013-05-20 07:55:00,77.2,51.6,28.98,WSW,248,7.0,12.0,41,0.00,,,0.00,meteohub,2013-05-20 12:55:00,
2013-05-20 08:00:00,77.5,51.3,28.98,SSE,158,2.0,12.0,40,0.00,,,0.00,meteohub,2013-05-20 13:00:00,
2013-05-20 08:05:00,77.9,50.9,28.98,SW,225,9.0,13.0,39,0.00,,,0.00,meteohub,2013-05-20 13:05:00,
2013-05-20 08:10:00,78.4,50.0,28.98,WSW,248,7.0,13.0,37,0.00,,,0.00,meteohub,2013-05-20 13:10:00,
2013-05-20 08:15:00,79.3,49.3,28.98,SSW,202,5.0,11.0,35,0.00,,,0.00,meteohub,2013-05-20 13:15:00,
2013-05-20 08:20:00,79.3,48.6,28.98,WSW,248,11.0,11.0,34,0.00,,,0.00,meteohub,2013-05-20 13:20:00,
2013-05-20 08:25:00,78.3,49.1,28.98,SSW,202,6.0,13.0,36,0.00,,,0.00,meteohub,2013-05-20 13:25:00,
2013-05-20 08:30:00,77.5,48.6,28.98,WNW,292,11.0,13.0,36,0.00,,,0.00,meteohub,2013-05-20 13:30:00,
2013-05-20 08:35:00,77.2,48.9,28.98,WSW,248,8.0,13.0,37,0.00,,,0.00,meteohub,2013-05-20 13:35:00,
2013-05-20 08:40:00,76.8,49.3,28.98,WSW,248,6.0,12.0,38,0.00,,,0.00,meteohub,2013-05-20 13:40:00,
2013-05-20 08:45:00,77.2,48.9,28.98,South,180,7.0,12.0,37,0.00,,,0.00,meteohub,2013-05-20 13:45:00,
2013-05-20 08:50:00,77.5,49.3,28.98,SSW,202,5.0,12.0,37,0.00,,,0.00,meteohub,2013-05-20 13:50:00,
2013-05-20 08:55:00,78.4,48.6,28.98,South,180,6.0,11.0,35,0.00,,,0.00,meteohub,2013-05-20 13:55:00,
2013-05-20 09:00:00,79.0,47.5,28.98,South,180,6.0,11.0,33,0.00,,,0.00,meteohub,2013-05-20 14:00:00,
2013-05-20 09:05:00,80.2,47.7,28.95,SSE,158,7.0,11.0,32,0.00,,,0.00,meteohub,2013-05-20 14:05:00,
2013-05-20 09:10:00,81.5,47.1,28.95,ESE,112,3.0,10.0,30,0.00,,,0.00,meteohub,2013-05-20 14:10:00,
2013-05-20 09:15:00,82.8,47.3,28.95,SSW,202,6.0,10.0,29,0.00,,,0.00,meteohub,2013-05-20 14:15:00,
2013-05-20 09:20:00,82.0,46.6,28.95,NNW,338,6.0,10.0,29,0.00,,,0.00,meteohub,2013-05-20 14:20:00,
2013-05-20 09:26:00,83.1,44.8,28.95,SSW,202,4.0,10.0,26,0.00,,,0.00,meteohub,2013-05-20 14:26:00,
2013-05-20 09:31:00,81.9,42.6,28.95,SSW,202,5.0,10.0,25,0.00,,,0.00,meteohub,2013-05-20 14:31:00,
2013-05-20 09:36:00,81.7,43.5,28.95,South,180,8.0,10.0,26,0.00,,,0.00,meteohub,2013-05-20 14:36:00,
2013-05-20 09:41:00,81.0,46.6,28.95,SSE,158,4.0,10.0,30,0.00,,,0.00,meteohub,2013-05-20 14:41:00,
2013-05-20 09:46:00,81.3,46.9,28.95,SSW,202,4.0,9.0,30,0.00,,,0.00,meteohub,2013-05-20 14:46:00,
2013-05-20 09:51:00,80.4,46.2,28.95,ESE,112,7.0,13.0,30,0.00,,,0.00,meteohub,2013-05-20 14:51:00,
2013-05-20 09:56:00,80.1,46.8,28.95,South,180,9.0,13.0,31,0.00,,,0.00,meteohub,2013-05-20 14:56:00,
2013-05-20 10:01:00,79.9,46.6,28.95,SSW,202,10.0,13.0,31,0.00,,,0.00,meteohub,2013-05-20 15:01:00,
2013-05-20 10:06:00,80.6,47.1,28.95,South,180,5.0,12.0,31,0.00,,,0.00,meteohub,2013-05-20 15:06:00,
2013-05-20 10:11:00,80.8,46.4,28.95,SSW,202,0.0,12.0,30,0.00,,,0.00,meteohub,2013-05-20 15:11:00,
2013-05-20 10:16:00,81.1,46.8,28.95,SW,225,7.0,11.0,30,0.00,,,0.00,meteohub,2013-05-20 15:16:00,
2013-05-20 10:21:00,81.0,45.7,28.95,ESE,112,8.0,16.0,29,0.00,,,0.00,meteohub,2013-05-20 15:21:00,
2013-05-20 10:26:00,80.2,44.2,28.95,SSE,158,5.0,16.0,28,0.00,,,0.00,meteohub,2013-05-20 15:26:00,
2013-05-20 10:31:00,80.1,43.2,28.95,SSW,202,4.0,16.0,27,0.00,,,0.00,meteohub,2013-05-20 15:31:00,
2013-05-20 10:36:00,80.6,39.4,28.95,SE,135,5.0,15.0,23,0.00,,,0.00,meteohub,2013-05-20 15:36:00,
2013-05-20 10:41:00,80.1,37.8,28.95,SSE,158,11.0,15.0,22,0.00,,,0.00,meteohub,2013-05-20 15:41:00,
2013-05-20 10:46:00,80.4,38.1,28.95,South,180,3.0,13.0,22,0.00,,,0.00,meteohub,2013-05-20 15:46:00,
2013-05-20 10:51:00,80.1,37.8,28.95,SSE,158,6.0,13.0,22,0.00,,,0.00,meteohub,2013-05-20 15:51:00,
2013-05-20 10:56:00,80.2,39.2,28.95,SSE,158,4.0,13.0,23,0.00,,,0.00,meteohub,2013-05-20 15:56:00,
2013-05-20 11:01:00,80.2,37.9,28.95,SSE,158,5.0,13.0,22,0.00,,,0.00,meteohub,2013-05-20 16:01:00,
2013-05-20 11:06:00,80.8,37.2,28.95,South,180,4.0,13.0,21,0.00,,,0.00,meteohub,2013-05-20 16:06:00,
2013-05-20 11:11:00,80.8,36.0,28.95,SE,135,6.0,11.0,20,0.00,,,0.00,meteohub,2013-05-20 16:11:00,
2013-05-20 11:16:00,80.6,37.0,28.95,SE,135,8.0,10.0,21,0.00,,,0.00,meteohub,2013-05-20 16:16:00,
2013-05-20 11:21:00,81.1,37.6,28.95,SSE,158,6.0,12.0,21,0.00,,,0.00,meteohub,2013-05-20 16:21:00,
2013-05-20 11:26:00,81.3,36.5,28.95,SE,135,7.0,12.0,20,0.00,,,0.00,meteohub,2013-05-20 16:26:00,
2013-05-20 11:31:00,81.7,36.7,28.95,SSE,158,7.0,12.0,20,0.00,,,0.00,meteohub,2013-05-20 16:31:00,
2013-05-20 11:36:00,81.9,36.9,28.95,NNW,338,6.0,13.0,20,0.00,,,0.00,meteohub,2013-05-20 16:36:00,
2013-05-20 11:41:00,81.9,36.9,28.95,SE,135,7.0,13.0,20,0.00,,,0.00,meteohub,2013-05-20 16:41:00,
2013-05-20 11:46:00,81.7,36.7,28.95,ESE,112,6.0,13.0,20,0.00,,,0.00,meteohub,2013-05-20 16:46:00,
2013-05-20 11:51:00,81.7,36.7,28.92,SSW,202,9.0,13.0,20,0.00,,,0.00,meteohub,2013-05-20 16:51:00,
2013-05-20 11:56:00,81.7,35.4,28.92,SSE,158,11.0,14.0,19,0.00,,,0.00,meteohub,2013-05-20 16:56:00,
2013-05-20 12:01:00,82.2,36.0,28.92,SSE,158,8.0,14.0,19,0.00,,,0.00,meteohub,2013-05-20 17:01:00,
2013-05-20 12:06:00,83.1,32.4,28.92,ESE,112,8.0,14.0,16,0.00,,,0.00,meteohub,2013-05-20 17:06:00,
2013-05-20 12:11:00,83.3,29.1,28.92,SE,135,11.0,13.0,14,0.00,,,0.00,meteohub,2013-05-20 17:11:00,
2013-05-20 12:16:00,85.5,25.0,28.92,ESE,112,8.0,13.0,11,0.00,,,0.00,meteohub,2013-05-20 17:16:00,
2013-05-20 12:21:00,86.7,26.1,28.92,SSW,202,8.0,13.0,11,0.00,,,0.00,meteohub,2013-05-20 17:21:00,
2013-05-20 12:26:00,87.1,18.7,28.92,SSW,202,10.0,13.0,8,0.00,,,0.00,meteohub,2013-05-20 17:26:00,
2013-05-20 12:31:00,87.3,18.9,28.92,SSE,158,6.0,13.0,8,0.00,,,0.00,meteohub,2013-05-20 17:31:00,
2013-05-20 12:36:00,87.6,19.2,28.92,South,180,6.0,17.0,8,0.00,,,0.00,meteohub,2013-05-20 17:36:00,
2013-05-20 12:41:00,87.8,19.2,28.92,SSE,158,3.0,17.0,8,0.00,,,0.00,meteohub,2013-05-20 17:41:00,
2013-05-20 12:46:00,88.2,19.6,28.92,SSE,158,13.0,16.0,8,0.00,,,0.00,meteohub,2013-05-20 17:46:00,
2013-05-20 12:51:00,88.0,19.4,28.92,SSW,202,6.0,16.0,8,0.00,,,0.00,meteohub,2013-05-20 17:51:00,
2013-05-20 12:56:00,87.6,19.2,28.92,South,180,9.0,16.0,8,0.00,,,0.00,meteohub,2013-05-20 17:56:00,
2013-05-20 13:01:00,87.6,19.2,28.92,West,270,3.0,15.0,8,0.00,,,0.00,meteohub,2013-05-20 18:01:00,
2013-05-20 13:06:00,88.2,19.6,28.95,SE,135,8.0,15.0,8,0.00,,,0.00,meteohub,2013-05-20 18:06:00,
2013-05-20 13:11:00,88.2,19.6,28.95,SE,135,12.0,13.0,8,0.00,,,0.00,meteohub,2013-05-20 18:11:00,
2013-05-20 13:16:00,88.7,19.9,28.95,South,180,10.0,13.0,8,0.00,,,0.00,meteohub,2013-05-20 18:16:00,
2013-05-20 13:21:00,89.2,20.3,28.95,SSW,202,6.0,13.0,8,0.00,,,0.00,meteohub,2013-05-20 18:21:00,
2013-05-20 13:26:00,90.5,18.1,28.95,SW,225,3.0,13.0,7,0.00,,,0.00,meteohub,2013-05-20 18:26:00,
2013-05-20 13:31:00,90.0,17.8,28.95,SSW,202,8.0,13.0,7,0.00,,,0.00,meteohub,2013-05-20 18:31:00,
2013-05-20 13:36:00,91.2,18.7,28.98,SW,225,9.0,13.0,7,0.00,,,0.00,meteohub,2013-05-20 18:36:00,
2013-05-20 13:42:00,90.9,18.3,28.98,South,180,10.0,17.0,7,0.00,,,0.00,meteohub,2013-05-20 18:42:00,
2013-05-20 13:47:00,89.8,17.6,28.98,SSW,202,8.0,17.0,7,0.00,,,0.00,meteohub,2013-05-20 18:47:00,
2013-05-20 13:52:00,89.6,17.4,28.95,SSW,202,10.0,20.0,7,0.00,,,0.00,meteohub,2013-05-20 18:52:00,
2013-05-20 13:56:00,88.9,20.1,28.95,SSW,202,9.0,20.0,8,0.00,,,0.00,meteohub,2013-05-20 18:56:00,
2013-05-20 14:01:00,88.5,19.8,28.95,SSW,202,13.0,20.0,8,0.00,,,0.00,meteohub,2013-05-20 19:01:00,
2013-05-20 14:07:00,90.1,18.0,28.95,SSE,158,8.0,18.0,7,0.00,,,0.00,meteohub,2013-05-20 19:07:00,
2013-05-20 14:11:00,90.0,17.8,28.95,SSW,202,7.0,18.0,7,0.00,,,0.00,meteohub,2013-05-20 19:11:00,
2013-05-20 14:17:00,90.0,17.8,28.95,SSW,202,11.0,18.0,7,0.00,,,0.00,meteohub,2013-05-20 19:17:00,
2013-05-20 14:22:00,90.3,18.0,28.98,SSW,202,8.0,17.0,7,0.00,,,0.00,meteohub,2013-05-20 19:22:00,
2013-05-20 14:27:00,90.5,18.1,28.98,WSW,248,6.0,17.0,7,0.00,,,0.00,meteohub,2013-05-20 19:27:00,
2013-05-20 14:32:00,89.2,20.3,28.98,West,270,8.0,17.0,8,0.00,,,0.00,meteohub,2013-05-20 19:32:00,
2013-05-20 14:37:00,88.3,19.6,28.98,SSW,202,13.0,17.0,8,0.00,,,0.00,meteohub,2013-05-20 19:37:00,
2013-05-20 14:42:00,89.2,20.3,28.98,SSW,202,6.0,17.0,8,0.00,,,0.00,meteohub,2013-05-20 19:42:00,
2013-05-20 14:47:00,89.8,17.6,28.98,SSW,202,10.0,17.0,7,0.00,,,0.00,meteohub,2013-05-20 19:47:00,
2013-05-20 14:51:00,91.4,18.9,28.98,SW,225,6.0,14.0,7,0.00,,,0.00,meteohub,2013-05-20 19:51:00,
2013-05-20 14:56:00,93.4,16.7,28.98,SW,225,7.0,13.0,6,0.00,,,0.00,meteohub,2013-05-20 19:56:00,
2013-05-20 15:01:00,92.3,19.4,28.98,SW,225,12.0,14.0,7,0.00,,,0.00,meteohub,2013-05-20 20:01:00,
2013-05-20 15:07:00,92.7,19.8,28.95,SW,225,8.0,14.0,7,0.00,,,0.00,meteohub,2013-05-20 20:07:00,
2013-05-20 15:11:00,92.3,19.4,28.95,West,270,13.0,17.0,7,0.00,,,0.00,meteohub,2013-05-20 20:11:00,
2013-05-20 15:17:00,90.5,18.1,28.95,WNW,292,9.0,17.0,7,0.00,,,0.00,meteohub,2013-05-20 20:17:00,
2013-05-20 15:22:00,89.8,17.6,28.95,SW,225,12.0,17.0,7,0.00,,,0.00,meteohub,2013-05-20 20:22:00,
2013-05-20 15:27:00,90.0,17.8,28.95,WSW,248,13.0,19.0,7,0.00,,,0.00,meteohub,2013-05-20 20:27:00,
2013-05-20 15:32:00,90.3,18.0,28.95,SW,225,9.0,19.0,7,0.00,,,0.00,meteohub,2013-05-20 20:32:00,
2013-05-20 15:37:00,89.4,20.5,28.95,WSW,248,13.0,19.0,8,0.00,,,0.00,meteohub,2013-05-20 20:37:00,
2013-05-20 15:42:00,88.9,20.1,28.95,SW,225,16.0,18.0,8,0.00,,,0.00,meteohub,2013-05-20 20:42:00,
2013-05-20 15:47:00,88.2,19.6,28.95,SE,135,10.0,18.0,8,0.00,,,0.00,meteohub,2013-05-20 20:47:00,
2013-05-20 15:52:00,88.9,20.1,28.95,WSW,248,8.0,22.0,8,0.00,,,0.00,meteohub,2013-05-20 20:52:00,
2013-05-20 15:57:00,89.2,20.3,28.95,South,180,8.0,22.0,8,0.00,,,0.00,meteohub,2013-05-20 20:57:00,
2013-05-20 16:02:00,90.0,17.8,28.95,SSW,202,9.0,22.0,7,0.00,,,0.00,meteohub,2013-05-20 21:02:00,
2013-05-20 16:07:00,91.6,18.9,28.92,SSW,202,6.0,15.0,7,0.00,,,0.00,meteohub,2013-05-20 21:07:00,
2013-05-20 16:12:00,91.6,18.9,28.92,SSW,202,3.0,15.0,7,0.00,,,0.00,meteohub,2013-05-20 21:12:00,
2013-05-20 16:17:00,90.5,18.1,28.92,SW,225,8.0,15.0,7,0.00,,,0.00,meteohub,2013-05-20 21:17:00,
2013-05-20 16:22:00,89.8,17.6,28.92,SW,225,6.0,18.0,7,0.00,,,0.00,meteohub,2013-05-20 21:22:00,
2013-05-20 16:27:00,90.1,18.0,28.92,SSW,202,15.0,18.0,7,0.00,,,0.00,meteohub,2013-05-20 21:27:00,
2013-05-20 16:32:00,90.9,18.3,28.92,SSW,202,9.0,18.0,7,0.00,,,0.00,meteohub,2013-05-20 21:32:00,
2013-05-20 16:37:00,89.6,17.4,28.92,SSW,202,15.0,17.0,7,0.00,,,0.00,meteohub,2013-05-20 21:37:00,
2013-05-20 16:42:00,89.1,20.1,28.92,SSW,202,6.0,17.0,8,0.00,,,0.00,meteohub,2013-05-20 21:42:00,
2013-05-20 16:47:00,89.2,20.3,28.92,SSW,202,6.0,17.0,8,0.00,,,0.00,meteohub,2013-05-20 21:47:00,
2013-05-20 16:52:00,90.9,18.3,28.89,SSW,202,6.0,17.0,7,0.00,,,0.00,meteohub,2013-05-20 21:52:00,
2013-05-20 16:57:00,90.7,18.3,28.89,West,270,8.0,17.0,7,0.00,,,0.00,meteohub,2013-05-20 21:57:00,
2013-05-20 17:02:00,90.5,18.1,28.89,SSW,202,6.0,17.0,7,0.00,,,0.00,meteohub,2013-05-20 22:02:00,
2013-05-20 17:07:00,90.5,18.1,28.89,SSW,202,13.0,17.0,7,0.00,,,0.00,meteohub,2013-05-20 22:07:00,
2013-05-20 17:12:00,91.0,18.5,28.89,WNW,292,8.0,15.0,7,0.00,,,0.00,meteohub,2013-05-20 22:12:00,
2013-05-20 17:17:00,90.3,18.0,28.89,WSW,248,10.0,15.0,7,0.00,,,0.00,meteohub,2013-05-20 22:17:00,
2013-05-20 17:22:00,90.9,18.3,28.89,SW,225,9.0,15.0,7,0.00,,,0.00,meteohub,2013-05-20 22:22:00,
2013-05-20 17:27:00,91.0,18.5,28.89,SSE,158,3.0,15.0,7,0.00,,,0.00,meteohub,2013-05-20 22:27:00,
2013-05-20 17:32:00,91.4,18.9,28.89,SSW,202,8.0,13.0,7,0.00,,,0.00,meteohub,2013-05-20 22:32:00,
2013-05-20 17:37:00,90.9,18.3,28.89,SE,135,6.0,14.0,7,0.00,,,0.00,meteohub,2013-05-20 22:37:00,
2013-05-20 17:42:00,89.4,20.5,28.89,SW,225,14.0,16.0,8,0.00,,,0.00,meteohub,2013-05-20 22:42:00,
2013-05-20 17:47:00,88.5,25.2,28.89,SSW,202,8.0,16.0,10,0.00,,,0.00,meteohub,2013-05-20 22:47:00,
2013-05-20 17:52:00,88.2,24.8,28.86,SSW,202,4.0,19.0,10,0.00,,,0.00,meteohub,2013-05-20 22:52:00,
2013-05-20 17:57:00,88.7,25.2,28.86,SW,225,8.0,19.0,10,0.00,,,0.00,meteohub,2013-05-20 22:57:00,
2013-05-20 18:02:00,89.1,25.5,28.86,SSW,202,6.0,14.0,10,0.00,,,0.00,meteohub,2013-05-20 23:02:00,
2013-05-20 18:07:00,87.8,24.6,28.86,SSW,202,10.0,15.0,10,0.00,,,0.00,meteohub,2013-05-20 23:07:00,
2013-05-20 18:12:00,87.6,26.6,28.86,SSE,158,9.0,15.0,11,0.00,,,0.00,meteohub,2013-05-20 23:12:00,
2013-05-20 18:17:00,88.0,24.6,28.86,East,90,10.0,15.0,10,0.00,,,0.00,meteohub,2013-05-20 23:17:00,
2013-05-20 18:22:00,87.6,26.6,28.86,SSW,202,8.0,15.0,11,0.00,,,0.00,meteohub,2013-05-20 23:22:00,
2013-05-20 18:27:00,87.4,26.6,28.86,SSW,202,9.0,17.0,11,0.00,,,0.00,meteohub,2013-05-20 23:27:00,
2013-05-20 18:32:00,87.6,26.6,28.86,South,180,6.0,17.0,11,0.00,,,0.00,meteohub,2013-05-20 23:32:00,
2013-05-20 18:37:00,87.4,26.6,28.86,SSW,202,6.0,17.0,11,0.00,,,0.00,meteohub,2013-05-20 23:37:00,
2013-05-20 18:42:00,87.1,26.2,28.86,SSE,158,8.0,16.0,11,0.00,,,0.00,meteohub,2013-05-20 23:42:00,
2013-05-20 18:46:00,87.1,26.2,28.86,SSW,202,6.0,16.0,11,0.00,,,0.00,meteohub,2013-05-20 23:46:00,
2013-05-20 18:51:00,86.9,30.2,28.86,SSW,202,9.0,16.0,13,0.00,,,0.00,meteohub,2013-05-20 23:51:00,
2013-05-20 18:57:00,86.5,29.8,28.86,SSW,202,6.0,15.0,13,0.00,,,0.00,meteohub,2013-05-20 23:57:00,
2013-05-20 19:01:00,86.4,29.8,28.86,SSW,202,8.0,15.0,13,0.00,,,0.00,meteohub,2013-05-21 00:01:00,
2013-05-20 19:06:00,86.4,29.8,28.86,SW,225,11.0,15.0,13,0.00,,,0.00,meteohub,2013-05-21 00:06:00,
2013-05-20 19:11:00,85.8,34.5,28.86,SW,225,11.0,15.0,16,0.00,,,0.00,meteohub,2013-05-21 00:11:00,
2013-05-20 19:16:00,85.5,37.2,28.86,SSW,202,8.0,15.0,18,0.00,,,0.00,meteohub,2013-05-21 00:16:00,
2013-05-20 19:22:00,85.3,37.0,28.86,South,180,6.0,15.0,18,0.00,,,0.00,meteohub,2013-05-21 00:22:00,
2013-05-20 19:27:00,84.9,36.7,28.86,SSW,202,6.0,13.0,18,0.00,,,0.00,meteohub,2013-05-21 00:27:00,
2013-05-20 19:32:00,84.7,37.9,28.86,SSE,158,4.0,13.0,19,0.00,,,0.00,meteohub,2013-05-21 00:32:00,
2013-05-20 19:37:00,84.0,39.9,28.86,South,180,10.0,13.0,21,0.00,,,0.00,meteohub,2013-05-21 00:37:00,
2013-05-20 19:42:00,83.7,39.6,28.86,SSE,158,9.0,13.0,21,0.00,,,0.00,meteohub,2013-05-21 00:42:00,